Location: Newark
(50.0336°N, 22.0047°E)
Time: 20:52:35
(UTC+00:00)

N. Korean satellite - Pass Details

Date: 31 January 2020
Orbit: 456 x 505 km, 97.2° (Epoch: 22 February)

Event Time Altitude Azimuth Distance (km) Brightness Sun altitude
Rises 04:40:55 0° 10° (N) 2,557 10.2 -14.0°
Reaches altitude 10° 04:42:59 10° 8° (N) 1,680 9.3 -13.7°
Maximum altitude 04:46:35 67° 286° (WNW) 536 6.5 -13.1°
Drops below altitude 10° 04:50:12 10° 203° (SSW) 1,692 9.2 -12.6°
Sets 04:52:17 0° 201° (SSW) 2,577 10.2 -12.3°
